#timestamp,LO_Frequency,Hit,StdDev 
1616986815.5,286047000.5,N
1616986835.3,286047000.0,N
1616986855.2,286047000.8,N
1616986875.0,286047000.9,N
1616986875.9,286047000.9,N
1616986895.8,286047000.8,N
1616986915.6,286046998.8,N
1616986935.4,286046998.8,N
1616986955.3,286046999.9,N
1616986975.1,286046998.2,N
1616986995.8,286047001.1,N
1616987015.7,286047000.5,N
1616987035.5,286047002.4,N
1616987055.3,286047002.7,N
1616987075.2,286047000.5,N
1616987095.0,286046998.2,N
1616987095.9,286046998.2,N
1616987115.8,286046999.2,N
1616987135.6,286046998.2,N
1616987155.4,286046998.7,N
1616987175.3,286046998.3,N
1616987195.1,286046999.0,N
1616987215.8,286046999.4,N
1616987235.7,286046998.7,N
1616987285.5,286046998.3,E
1616987295.5,286047002.4,N
1616987315.3,286047002.2,P
1616987335.1,286047000.1,N
1616987355.9,286047002.3,N
1616987375.7,286047002.1,N
1616987395.6,286047002.5,N
1616987415.4,286047001.7,N
1616987435.2,286047003.8,Y
1616987455.1,286046999.7,P
1616987456.0,286046999.7,N
1616987475.8,286047000.0,N
1616987495.6,286047000.4,N
1616987515.5,286047001.2,N
1616987535.3,286047001.0,N
1616987555.2,286047000.6,N
1616987575.9,286047001.1,N
1616987595.7,286047000.0,N
1616987615.6,286046999.9,N
1616987635.4,286047000.9,N
1616987655.2,286047000.9,N
1616987675.1,286047000.9,N
1616987676.0,286047000.9,N
1616987695.8,286047000.4,N
1616987715.7,286047001.0,N
1616987735.5,286047001.2,N
1616987755.3,286047001.1,N
1616987775.2,286046998.1,Y
1616987795.0,286047001.2,P
1616987795.9,286047001.2,P
1616987815.8,286047000.8,P
1616987835.6,286046998.9,Y
1616987855.4,286046999.6,P
1616987875.3,286046997.5,P
1616987895.1,286046997.0,N
1616987915.8,286046997.3,N
1616987935.7,286046997.5,N
1616987955.5,286046997.1,N
1616987975.4,286046997.8,N
1616987995.2,286046997.5,N
1616988015.0,286046999.2,N
1616988015.9,286046999.2,N
1616988035.8,286046996.7,N
1616988055.6,286046996.8,N
1616988075.4,286046996.6,N
1616988095.3,286046998.2,N
1616988115.1,286047002.7,N
1616988135.9,286047001.2,N
1616988155.7,286046998.1,N
1616988175.5,286046998.5,N
1616988195.4,286047001.0,N
1616988215.2,286047000.6,N
1616988235.0,286046998.3,N
1616988235.9,286046998.3,N
1616988255.8,286046998.3,N
1616988275.6,286046998.7,N
1616988295.5,286046999.6,N
1616988315.3,286046997.0,N
1616988335.1,286046995.2,Y
1616988355.9,286046996.7,P
1616988375.7,286046999.6,N
1616988395.5,286046996.5,N
1616988415.4,286047000.9,N
1616988435.2,286047001.0,N
1616988455.1,286046998.5,N
1616988456.0,286046998.5,N
1616988475.8,286046998.5,N
1616988495.6,286046998.3,N
1616988515.5,286047002.5,N
1616988535.3,286047002.3,N
1616988555.1,286047001.3,N
1616988575.9,286047003.8,N
1616988595.7,286047005.7,N
1616988615.6,286047004.6,N
1616988635.4,286047011.9,Y
1616988655.2,286047003.3,P
1616988675.1,286047003.5,N
1616988676.0,286047003.5,N
1616988695.8,286047003.7,N
1616988715.7,286047005.6,Y
1616988735.5,286046999.8,P
1616988755.3,286046998.2,N
1616988775.2,286046999.8,N
1616988795.9,286047000.1,N
1616988815.7,286047002.5,N
1616988835.6,286047000.7,N
1616988855.4,286047001.5,N
1616988875.3,286047004.4,Y
1616988895.1,286047002.0,P
1616988896.0,286047002.0,N
1616988915.8,286047003.9,P
1616988935.7,286047007.1,Y
1616988955.5,286047001.8,P
1616988975.3,286047002.6,P
1616988995.2,286047002.3,P
1616989015.0,286047002.4,Y
1616989015.9,286047002.4,P
1616989035.8,286046998.7,P
1616989055.6,286047000.3,N
1616989075.4,286047000.9,N
1616989095.3,286046996.9,N
1616989115.1,286046997.0,N
1616989135.8,286046997.1,N
1616989155.7,286046997.8,N
1616989175.5,286046997.2,N
1616989195.4,286046998.3,N
1616989215.2,286047001.5,N
1616989235.0,286046999.8,N
1616989235.9,286046999.8,N
1616989255.8,286046999.8,N
1616989275.6,286047002.8,N
1616989295.4,286047001.6,N
1616989315.3,286047001.0,N
1616989335.1,286047001.0,N
1616989355.9,286047000.4,N
1616989375.7,286046997.0,N
1616989395.5,286046995.3,N
1616989415.4,286046995.7,N
1616989435.2,286046995.6,N
1616989455.0,286046995.4,N
1616989455.9,286046995.4,N
1616989475.8,286046997.5,N
1616989495.6,286046996.8,N
1616989515.5,286046999.0,N
1616989535.3,286046996.7,N
1616989555.1,286047001.1,N
1616989575.9,286046998.9,N
1616989595.7,286046997.0,N
1616989615.5,286046996.8,N
1616989635.4,286046996.7,N
1616989655.2,286046995.7,N
1616989675.1,286046997.5,N
1616989676.0,286046997.5,N
1616989695.8,286046999.5,N
1616989715.6,286046998.0,N
1616989735.5,286046996.6,N
1616989755.3,286046997.8,N
1616989775.1,286046994.9,N
1616989795.9,286046998.0,N
1616989815.7,286046997.7,N
1616989835.6,286046995.6,N
1616989855.4,286046995.4,N
1616989875.2,286046999.2,N
1616989895.1,286046995.6,N
1616989896.0,286046995.6,N
1616989915.8,286046993.5,Y
1616989935.6,286046998.1,P
1616989955.5,286046998.2,P
1616989975.3,286047000.8,N
1616989995.2,286046998.6,N
1616990015.9,286046999.6,N
1616990035.7,286046997.7,N
1616990055.6,286046995.8,Y
1616990075.4,286046995.3,P
1616990095.2,286046999.1,N
1616990115.1,286046996.5,N
1616990116.0,286046996.5,N
1616990135.8,286046997.1,N
1616990155.7,286046997.9,N
1616990175.5,286046997.9,N
1616990195.3,286046997.7,N
1616990215.2,286046997.7,N
1616990235.0,286046995.4,Y
1616990235.9,286046995.4,P
1616990255.8,286046999.3,N
1616990275.6,286047000.5,N
1616990295.4,286047000.7,N
1616990315.3,286046999.8,N
1616990335.1,286047002.6,N
1616990355.8,286047000.9,N
1616990375.7,286047000.4,N
1616990395.5,286047000.4,N
